Location: Newark
(35.0033°N, 81.0878°W)
Time: 06:34:35
(UTC+00:00)

Envisat - Pass Details

Date: 27 October 2020
Orbit: 764 x 766 km, 98.1° (Epoch: 30 November)

Event Time Altitude Azimuth Distance (km) Brightness Sun altitude
Rises 10:23:06 0° 29° (NNE) 3,235 6.6 -16.6°
Reaches altitude 10° 10:25:54 10° 44° (NE) 2,304 6.0 -16.0°
Maximum altitude 10:29:50 22° 95° (E) 1,604 5.7 -15.2°
Drops below altitude 10° 10:33:45 10° 146° (SE) 2,292 6.0 -14.4°
Sets 10:36:30 0° 161° (SSE) 3,213 6.6 -13.8°
